AST,Max TemperatureF,Mean TemperatureF,Min TemperatureF,Max Dew PointF,MeanDew PointF,Min DewpointF,Max Humidity, Mean Humidity, Min Humidity, Max Sea Level PressureIn, Mean Sea Level PressureIn, Min Sea Level PressureIn, Max VisibilityMiles, Mean VisibilityMiles, Min VisibilityMiles, Max Wind SpeedMPH, Mean Wind SpeedMPH, Max Gust SpeedMPH,PrecipitationIn, CloudCover, Events, WindDirDegrees
2014-2-1,84,78,72,73,71,68,89,75,58,29.98,29.93,29.89,17,8,6,21,11,,0.00,2,,91
2014-2-2,85,80,74,75,73,70,94,80,65,29.96,29.91,29.86,12,7,5,21,12,32,0.00,2,Rain,92
2014-2-3,86,80,75,73,73,70,94,77,58,29.95,29.90,29.86,15,7,3,23,13,,0.12,2,Rain,85
2014-2-4,84,78,72,75,73,70,100,85,66,29.96,29.90,29.86,14,7,5,16,11,,0.51,4,Rain,93
2014-2-5,84,78,73,75,73,72,94,82,62,29.95,29.90,29.86,14,7,6,20,10,,0.02,3,Rain,86
2014-2-6,83,78,72,77,74,72,100,88,74,29.98,29.93,29.89,12,7,5,21,10,,0.39,4,Rain,94
2014-2-7,85,80,75,75,74,73,94,82,65,29.99,29.94,29.89,15,8,6,20,14,,0.04,3,Rain,95
2014-2-8,84,78,73,75,74,72,100,84,68,30.01,29.94,29.89,15,7,2,25,17,,0.08,5,Rain,95
2014-2-9,84,78,72,76,74,72,94,83,74,29.98,29.92,29.86,10,6,5,23,15,,0.01,5,Rain,102
2014-2-10,84,80,75,75,73,72,89,79,68,29.98,29.92,29.89,11,7,6,22,16,,0.00,3,,106
2014-2-11,84,79,74,77,74,72,89,81,69,30.01,29.93,29.89,11,7,6,22,15,,0.00,3,,108
2014-2-12,84,81,78,76,74,73,83,79,70,30.01,29.93,29.89,9,6,6,22,14,,0.00,2,,108
2014-2-13,84,80,76,75,74,72,94,79,70,29.99,29.94,29.89,10,6,4,21,16,,0.01,3,,103
2014-2-14,84,79,74,74,72,71,83,75,62,30.04,29.97,29.92,11,7,6,21,17,,0.00,3,,102
2014-2-15,83,78,74,73,72,71,89,77,61,30.05,29.99,29.95,10,7,5,69,18,,0.02,2,Rain,108
2014-2-16,83,77,71,73,72,70,100,79,59,30.02,29.97,29.92,12,7,6,23,15,,0.28,2,Rain,97
2014-2-17,83,77,71,73,71,70,89,77,61,29.99,29.93,29.89,14,8,6,21,11,,0.00,1,,100
2014-2-18,83,78,73,73,72,70,89,77,63,29.98,29.92,29.89,15,8,6,23,10,,0.04,2,Rain,98
2014-2-19,82,78,73,75,72,70,100,80,63,29.98,29.92,29.89,12,7,6,81,16,,0.20,2,Rain,103
2014-2-20,83,78,74,72,71,70,83,75,61,29.99,29.93,29.89,12,7,6,23,15,,0.00,3,Rain,100
2014-2-21,83,76,69,74,71,68,94,79,66,29.98,29.93,29.86,14,7,6,115,15,28,0.04,3,Rain,95
2014-2-22,84,80,75,73,71,70,83,74,55,29.99,29.93,29.89,15,8,6,23,17,,0.00,1,,100
2014-2-23,85,80,75,72,70,68,83,72,48,29.99,29.94,29.89,16,8,6,22,17,,0.00,1,,100
2014-2-24,84,80,75,73,71,69,83,73,58,29.98,29.92,29.89,17,8,6,22,17,,0.00,2,,104
2014-2-25,85,78,71,73,72,69,94,76,55,29.98,29.91,29.86,16,7,4,23,15,,0.16,2,Rain,100
2014-2-26,83,79,75,73,72,70,83,75,67,29.98,29.91,29.86,16,8,6,23,17,,0.00,1,,112
2014-2-27,83,79,75,75,73,70,83,77,64,29.99,29.92,29.86,16,8,6,22,17,,0.00,1,,113
2014-2-28,84,80,75,75,73,70,89,77,62,30.01,29.93,29.89,15,8,6,23,18,,0.00,1,,108